Regional Weather Roundup
Issued by NWS Mt. Holly, NJ

Home | Current Version | Previous Version | Text Only | Print | Product List | Glossary On
Versions: 1 2 3 4 5 6 7 8 9 10 11 12 13 14 15 16 17 18 19 20 21 22 23 24 25 26 27 28 29 30 31 32 33 34 35 36 37 38 39 40 41 42 43 44 45 46 47 48 49 50
000
ASUS41 KPHI 221812
RWRPHI

REGIONAL WEATHER ROUNDUP
NATIONAL WEATHER SERVICE MOUNT HOLLY NJ
200 PM EDT SUN OCT 22 2017

NOTE:  "FAIR" INDICATES FEW OR NO CLOUDS BELOW 12,000 FEET WITH NO
SIGNIFICANT WEATHER AND/OR OBSTRUCTIONS TO VISIBILITY.

 * = STATION DOES NOT REPORT PRECIPITATION (E.G. RAIN, SNOW, ETC.)
        OR FOG.

NJZ015>026-221900-
SOUTHERN NEW JERSEY

CITY           SKY/WX    TMP DP  RH WIND       PRES   REMARKS
POMONA         SUNNY     73  48  41 SE9       30.39F
6HR MIN TEMP:  49; 6HR MAX TEMP:  74;

WILDWOOD*      SUNNY     73  54  51 SE12      30.38F
MILLVILLE      SUNNY     75  54  47 VRB5      30.37F
WRIGHTSTOWN    SUNNY     74  44  33 S6        30.35F
MOUNT HOLLY      N/A    N/A N/A N/A MISG      30.37F
TRENTON        SUNNY     74  49  41 VRB6      30.37F
6HR MIN TEMP:  48; 6HR MAX TEMP:  74;


$$
NJZ001>014-221900-
NORTHERN NEW JERSEY

CITY           SKY/WX    TMP DP  RH WIND       PRES   REMARKS
SUSSEX         SUNNY     76  47  35 SW7       30.35F
ANDOVER*         N/A     75  42  30 SW8       30.36F
MORRISTOWN     MOSUNNY   75  45  33 SW6       30.37F
NEWARK         PTSUNNY   74  47  38 SE9       30.37F
TETERBORO      SUNNY     76  37  24 S10       30.36F
CALDWELL       SUNNY     76  45  33 CALM      30.37F
SOMERVILLE     SUNNY     76  48  37 VRB7      30.35F
ALLAIRE*       SUNNY     72  50  45 SE10      30.39F
TOMS RIVER*      N/A     75  55  49 SE9       30.39F

$$
PAZ043-044-047-054-055-060>062-066>071-221900-
EASTERN PENNSYLVANIA

CITY           SKY/WX    TMP DP  RH WIND       PRES   REMARKS
PHILADELPHIA   PTSUNNY   75  46  35 SE5       30.37F
6HR MIN TEMP:  51; 6HR MAX TEMP:  75;

NORTH PHILA    SUNNY     75  49  39 VRB3      30.39F
BLUE BELL*     SUNNY     72  46  40 S6        30.38F
DOYLESTOWN     SUNNY     73  44  35 SE6       30.36F
QUAKERTOWN*    SUNNY     73  46  38 SW7       30.38F
PERKASIE*      FAIR      73  43  33 S6        30.38F
POTTSTOWN      SUNNY     72  47  40 VRB7      30.38F
LANCASTER      SUNNY     74  45  35 SE8       30.35F
COATESVILLE    SUNNY     72  43  35 SE8       30.38F
READING        SUNNY     76  48  37 S9        30.34F
6HR MIN TEMP:  44; 6HR MAX TEMP:  76;

ALLENTOWN      SUNNY     75  43  31 S6        30.36F
6HR MIN TEMP:  45; 6HR MAX TEMP:  76;

MOUNT POCONO   SUNNY     68  42  38 VRB6      30.38F
6HR MIN TEMP:  43; 6HR MAX TEMP:  69;

HAZLETON       SUNNY     72  37  28 S7        30.39F
LEHIGHTON      FAIR      73  41  31 S6        30.36F HAZE
WILKES BARRE   SUNNY     77  41  27 S12G17    30.33F

$$
DEZALL-MDZ008-012-015-019-020-221900-
DELAWARE AND EASTERN MARYLAND

CITY           SKY/WX    TMP DP  RH WIND       PRES   REMARKS
WILMINGTON     SUNNY     73  50  44 S9        30.37F
6HR MIN TEMP:  48; 6HR MAX TEMP:  73;

DOVER          MOSUNNY   70  61  73 E9        30.36F
GEORGETOWN     SUNNY     76  48  37 S7        30.37F
6HR MIN TEMP:  50; 6HR MAX TEMP:  76;

EASTON         MOSUNNY   77  45  31 S5        30.39F
PATUXENT       PTSUNNY   71  62  73 SE9       30.35F
OCEAN CITY     SUNNY     70  61  73 SE7       30.37F
WALLOPS ISLAND SUNNY     72  59  63 SE7       30.36F
CAMBRIDGE      SUNNY     75  50  41 SE9       30.35F
SALISBURY      SUNNY     74  54  49 SE5       30.36F

$$
PAZ001-021-NYZ056-072-MDZ011-DCZ001-221900-
OTHER NEARBY LOCATIONS

CITY           SKY/WX    TMP DP  RH WIND       PRES   REMARKS
HARRISBURG     MOSUNNY   75  52  44 SE5       30.33F
WILLIAMSPORT   MOSUNNY   72  51  47 VRB6      30.32F
BINGHAMTON     MOSUNNY   69  45  41 S9        30.33F
NEW YORK CITY  SUNNY     76  43  30 CALM      30.40F
BALTIMORE      PTSUNNY   74  54  49 SE7       30.35F
WASHINGTON DC  PTSUNNY   76  55  48 S7        30.35F

$$



USA.gov is the U.S. government's official web portal to all federal, state and local government web resources and services.